New Castle, PA

11:07 AM EDT on May 24, 2017 (GMT -0400)
New Castle Municipal

Weather History for KUCP - March, 2014

Change the Weather History Date:

Sunday, March 23, 2014

  Actual Average Record
Temperature  
Mean Temperature 24 °F -  
Max Temperature 32 °F 49 °F 81 °F (2012)
Min Temperature 15 °F 26 °F 8 °F (1940)
Degree Days  
Heating Degree Days 41    
Moisture  
Dew Point 14 °F    
Average Humidity 66    
Maximum Humidity 86    
Minimum Humidity 50    
Precipitation  
Precipitation 0.00 in - - ()
Sea Level Pressure  
Sea Level Pressure 30.27 in    
Wind  
Wind Speed 9 mph (NNW)    
Max Wind Speed 20 mph    
Max Gust Speed 26 mph    
Visibility 10 miles    
Events Snow    
Averages and records for this station are not official NWS values.
T = Trace of Precipitation, MM = Missing Value Source: NWS Daily Summary

Daily Weather History Graph

Daily Weather History Graph

Search for Another Location

Airport or City:

Trip Planner

Search our weather history database for the weather conditions in past years. The results will help you decide how hot, cold, wet, or windy it might be!

Date:

Astronomy

Mar. 23, 2014 Rise Set
Actual Time 7:19 AM EDT 7:36 PM EDT
Civil Twilight 6:52 AM EDT 8:04 PM EDT
Nautical Twilight 6:20 AM EDT 8:36 PM EDT
Astronomical Twilight 5:47 AM EDT 9:09 PM EDT
Moon 1:54 AM EDT (3/23) 11:57 AM EDT (3/23)
Length of Visible Light 13h 11m
Length of Day
12h 17m
Waning Gibbous, 55% of the Moon is Illuminated
Mar 23
Waning Gibbous
Mar 23
Last Quarter
Mar 30
New
Apr 7
First Quarter
Apr 15
Full

Hourly Weather History & Observations

Time (EDT) Temp. Windchill Dew Point Humidity Pressure Visibility Wind Dir Wind Speed Gust Speed Precip Events Conditions
12:56 AM 32.9 °F - 25.2 °F 73% 30.19 in 10.0 mi Calm Calm - N/A   Clear
1:56 AM 32.9 °F - 24.1 °F 70% 30.19 in 10.0 mi Calm Calm - N/A   Clear
2:56 AM 32.0 °F 20.1 °F 25.2 °F 76% 30.21 in 10.0 mi North 19.6 mph 26.5 mph N/A   Mostly Cloudy
3:13 AM 30.2 °F 20.8 °F 24.8 °F 80% 30.13 in 10.0 mi NNW 11.5 mph 20.7 mph 0.00 in   Overcast
3:28 AM 28.4 °F 18.0 °F 24.8 °F 86% 30.14 in 10.0 mi NNW 12.7 mph 17.3 mph 0.00 in   Overcast
3:56 AM 29.1 °F 18.9 °F 23.0 °F 78% 30.21 in 10.0 mi NNW 12.7 mph - 0.00 in   Overcast
4:56 AM 28.0 °F 17.5 °F 23.0 °F 81% 30.23 in 10.0 mi NNW 12.7 mph - N/A   Overcast
5:42 AM 26.6 °F 15.2 °F 17.6 °F 69% 30.16 in 10.0 mi NNW 13.8 mph 19.6 mph N/A   Overcast
5:56 AM 25.2 °F 14.4 °F 18.1 °F 75% 30.24 in 10.0 mi NNW 11.5 mph - N/A   Overcast
6:23 AM 24.8 °F 14.6 °F 17.6 °F 74% 30.17 in 10.0 mi NNW 10.4 mph - N/A   Overcast
6:56 AM 24.1 °F 13.1 °F 16.2 °F 72% 30.27 in 10.0 mi NNW 11.5 mph 16.1 mph N/A   Overcast
7:56 AM 23.0 °F 13.1 °F 15.1 °F 72% 30.30 in 10.0 mi NNW 9.2 mph - N/A   Overcast
8:56 AM 22.1 °F 10.0 °F 14.0 °F 71% 30.31 in 10.0 mi North 12.7 mph - 0.00 in Snow Light Snow
9:56 AM 22.1 °F 10.6 °F 12.0 °F 65% 30.32 in 10.0 mi North 11.5 mph - 0.00 in Snow Light Snow
10:56 AM 21.2 °F 8.9 °F 10.4 °F 63% 30.24 in 10.0 mi North 12.7 mph - N/A   Mostly Cloudy
11:28 AM 23.0 °F 11.1 °F 8.6 °F 54% 30.25 in 10.0 mi NNW 12.7 mph - N/A   Scattered Clouds
11:56 AM 23.0 °F 11.7 °F 8.1 °F 53% 30.33 in 10.0 mi NNW 11.5 mph 19.6 mph N/A   Partly Cloudy
12:56 PM 25.2 °F 14.4 °F 9.1 °F 51% 30.32 in 10.0 mi WNW 11.5 mph 18.4 mph N/A   Partly Cloudy
1:56 PM 26.6 °F 15.7 °F 10.4 °F 51% 30.21 in 10.0 mi NW 12.7 mph 19.6 mph N/A   Partly Cloudy
2:56 PM 25.2 °F 13.3 °F 10.0 °F 53% 30.30 in 10.0 mi NNW 13.8 mph 23.0 mph N/A   Scattered Clouds
3:56 PM 24.1 °F 13.7 °F 9.1 °F 53% 30.30 in 10.0 mi NNW 10.4 mph - N/A   Scattered Clouds
4:56 PM 24.8 °F 12.9 °F 8.6 °F 50% 30.22 in 10.0 mi NNW 13.8 mph 19.6 mph N/A   Mostly Cloudy
5:56 PM 23.0 °F 11.1 °F 7.2 °F 51% 30.32 in 10.0 mi NNW 12.7 mph - N/A   Partly Cloudy
6:56 PM 21.0 °F 9.3 °F 8.1 °F 57% 30.35 in 10.0 mi NNW 11.5 mph 16.1 mph N/A   Mostly Cloudy
7:56 PM 20.1 °F 9.5 °F 8.1 °F 60% 30.36 in 10.0 mi NNW 9.2 mph - 0.00 in   Overcast
8:56 PM 19.0 °F 8.2 °F 7.2 °F 60% 30.39 in 10.0 mi NW 9.2 mph 20.7 mph 0.00 in   Overcast
9:56 PM 17.1 °F - 6.1 °F 62% 30.40 in 10.0 mi Calm Calm - N/A   Clear
10:56 PM 16.2 °F - 7.2 °F 68% 30.41 in 10.0 mi Calm Calm - N/A   Clear
11:56 PM 15.1 °F - 8.1 °F 74% 30.43 in 10.0 mi Calm Calm - N/A   Mostly Cloudy